Flag for United Kingdom Weather past 2 weeks in Silverstone, England, United Kingdom

Now
48 °F

Partly sunny.


Feels Like: 43 °F
Forecast: N/A
Wind: 13 mph from West

Location: Cranfield

Current Time: Mar 5, 2015 at 3:00:49 PM

Latest Report: Mar 5, 2015 at 2:20 PM


Visibility: N/A

Pressure: 30.63 "Hg

Humidity: 66%

Dew point: 37 °F

Location of SilverstoneLocation

Historic Weather in Silverstone — Graph

°F

Silverstone temperature yesterday

Maximum temperature yesterday: 50 °F (at 1:20 PM)
Minimum temperature yesterday: 37 °F (at 7:50 AM)
Average temperature yesterday: 45 °F

Past Weeks' High & Low Weather Summary

 TemperatureHumidityPressure
High52 °F (Feb 25, 1:20 PM)100% (Feb 20, 7:50 AM)30.69 "Hg (Feb 20, 7:50 AM)
Low34 °F (Feb 22, 8:20 AM)40% (Mar 2, 3:20 PM)29.18 "Hg (Feb 23, 12:50 PM)
Average44 °F75%29.83 "Hg
* Reported Feb 18 1:20 PM — Mar 5 1:50 PM, Silverstone, Weather by CustomWeather, © 2015

Note: Actual official high and low records may vary slightly from our data, if they occured in-between our weather recording intervals... More about our weather records

Advertising

Silverstone weather history for previous 24 hours

 ConditionsComfort  
Time TempWeatherWind HumidityBarometerVisibility
1:50 PM
Thu, Mar 5
48 °FPartly sunny.15 mph66%30.63 "HgN/A
1:20 PM48 °FPassing clouds.15 mph71%30.63 "HgN/A
12:50 PM48 °FPassing clouds.13 mph71%30.63 "HgN/A
12:20 PM50 °FPassing clouds.13 mph67%30.63 "HgN/A
11:50 AM48 °FPassing clouds.14 mph71%30.63 "HgN/A
11:20 AM48 °FPassing clouds.12 mph71%30.66 "HgN/A
10:50 AM48 °FPassing clouds.10 mph71%30.66 "HgN/A
10:20 AM45 °FSunny.13 mph76%30.66 "Hg10 mi
9:50 AM43 °FSunny.9 mph81%30.66 "Hg10 mi
9:20 AM43 °FSunny.9 mph81%30.69 "Hg10 mi
8:50 AM41 °FSunny.10 mph81%30.69 "Hg10 mi
8:20 AM39 °FSunny.12 mph87%30.69 "Hg10 mi
7:50 AM36 °FSunny.10 mph87%30.66 "Hg10 mi
5:20 PM
Wed, Mar 4
46 °FPassing clouds.14 mph62%30.51 "HgN/A
4:50 PM48 °FPassing clouds.15 mph58%30.51 "HgN/A
4:20 PM48 °FPassing clouds.15 mph54%30.48 "HgN/A
3:50 PM48 °FPassing clouds.15 mph54%30.45 "HgN/A
3:20 PM48 °FPassing clouds.18 mph58%30.45 "HgN/A
Weather by CustomWeather, © 2015

See weather overviewHow to use our weather pages